| time (UTC) | temp F | wind direction | speed MPH | gust MPH | rain 1hr in | rain 24hr in | rain mn in | humidity % | barometer mb |
| 20260903222321 | 87 | 176 | 0.0 | 0.0 | 0.00 | 0.01 | 0.01 | 74 | 1013.2 |
| 20260903222025 | 86 | 0 | 0.0 | 0.0 | 0.00 | 0.01 | 0.01 | 74 | 1013.9 |
| 20260903221855 | 87 | 176 | 0.0 | 0.0 | 0.00 | 0.01 | 0.01 | 75 | 1013.2 |
| 20260903221544 | 87 | 0 | 0.0 | 0.0 | 0.00 | 0.01 | 0.01 | 74 | 1013.9 |
| 20260903221328 | 87 | 176 | 0.0 | 0.0 | 0.00 | 0.01 | 0.01 | 74 | 1013.1 |
| 20260903221024 | 87 | 0 | 0.0 | 1.0 | 0.00 | 0.01 | 0.01 | 74 | 1013.8 |
| 20260903220823 | 87 | 176 | 0.0 | 1.0 | 0.00 | 0.01 | 0.01 | 73 | 1013.0 |
| 20260903220623 | 87 | 0 | 0.0 | 1.0 | 0.00 | 0.01 | 0.01 | 73 | 1013.8 |
| 20260903220317 | 88 | 176 | 0.0 | 1.0 | 0.00 | 0.01 | 0.01 | 72 | 1013.1 |
| 20260903220056 | 87 | 0 | 0.0 | 1.0 | 0.00 | 0.01 | 0.01 | 69 | 1013.8 |
| 20260903215813 | 88 | 176 | 0.0 | 0.0 | 0.00 | 0.01 | 0.01 | 72 | 1013.2 |
| 20260903215525 | 88 | 0 | 0.0 | 1.0 | 0.00 | 0.01 | 0.01 | 71 | 1013.9 |
| 20260903215329 | 88 | 176 | 0.0 | 1.0 | 0.00 | 0.01 | 0.01 | 71 | 1013.2 |
| 20260903215025 | 88 | 0 | 0.0 | 1.0 | 0.00 | 0.01 | 0.01 | 69 | 1013.9 |
| 20260903214821 | 88 | 175 | 0.0 | 1.0 | 0.00 | 0.01 | 0.01 | 70 | 1013.2 |
| 20260903214552 | 88 | 0 | 0.0 | 0.0 | 0.00 | 0.01 | 0.01 | 71 | 1013.8 |
| 20260903214319 | 88 | 177 | 0.0 | 0.0 | 0.00 | 0.01 | 0.01 | 70 | 1013.1 |
| 20260903214025 | 88 | 0 | 0.0 | 2.0 | 0.00 | 0.01 | 0.01 | 72 | 1013.9 |
| 20260903213815 | 89 | 176 | 0.0 | 2.0 | 0.00 | 0.01 | 0.01 | 70 | 1013.1 |
| 20260903213526 | 88 | 0 | 0.0 | 2.0 | 0.00 | 0.01 | 0.01 | 71 | 1013.8 |
| 20260903213331 | 89 | 176 | 0.0 | 2.0 | 0.00 | 0.01 | 0.01 | 71 | 1013.1 |
| 20260903213045 | 88 | 0 | 0.0 | 2.0 | 0.00 | 0.01 | 0.01 | 70 | 1013.9 |
| 20260903212848 | 88 | 167 | 0.0 | 2.0 | 0.00 | 0.01 | 0.01 | 70 | 1013.1 |
| 20260903212524 | 88 | 0 | 0.0 | 3.0 | 0.00 | 0.01 | 0.01 | 70 | 1013.9 |
| 20260903212322 | 88 | 167 | 0.0 | 2.0 | 0.00 | 0.01 | 0.01 | 71 | 1013.1 |
| 20260903212025 | 87 | 191 | 0.0 | 3.0 | 0.00 | 0.01 | 0.01 | 71 | 1013.8 |
| 20260903211836 | 88 | 167 | 0.0 | 3.0 | 0.00 | 0.01 | 0.01 | 72 | 1013.1 |
| 20260903211544 | 87 | 0 | 0.0 | 3.0 | 0.00 | 0.01 | 0.01 | 71 | 1013.9 |
| 20260903211312 | 87 | 167 | 0.0 | 3.0 | 0.00 | 0.01 | 0.01 | 75 | 1013.2 |
| 20260903211025 | 87 | 0 | 0.0 | 3.0 | 0.00 | 0.01 | 0.01 | 74 | 1014.0 |
| 20260903210830 | 87 | 167 | 0.0 | 3.0 | 0.00 | 0.01 | 0.01 | 75 | 1013.3 |
| 20260903210525 | 87 | 0 | 0.0 | 4.0 | 0.00 | 0.01 | 0.01 | 74 | 1014.0 |
| 20260903210342 | 87 | 211 | 0.0 | 4.0 | 0.00 | 0.01 | 0.01 | 73 | 1013.3 |
| 20260903210108 | 87 | 0 | 0.0 | 4.0 | 0.00 | 0.01 | 0.01 | 74 | 1014.0 |
| 20260903205826 | 87 | 211 | 1.0 | 4.0 | 0.00 | 0.01 | 0.01 | 73 | 1013.3 |
| 20260903205524 | 87 | 0 | 0.0 | 4.0 | 0.00 | 0.01 | 0.01 | 72 | 1014.0 |
| 20260903205320 | 87 | 161 | 0.0 | 4.0 | 0.00 | 0.01 | 0.01 | 72 | 1013.3 |
| 20260903205027 | 87 | 0 | 0.0 | 4.0 | 0.00 | 0.01 | 0.01 | 71 | 1014.0 |
| 20260903204816 | 87 | 160 | 0.0 | 4.0 | 0.00 | 0.01 | 0.01 | 75 | 1013.4 |
| 20260903204608 | 87 | 184 | 0.0 | 3.0 | 0.00 | 0.01 | 0.01 | 74 | 1014.2 |
| 20260903204329 | 87 | 161 | 0.0 | 3.0 | 0.00 | 0.01 | 0.01 | 74 | 1013.5 |
| 20260903204027 | 86 | 0 | 0.0 | 3.0 | 0.00 | 0.01 | 0.01 | 72 | 1014.1 |
| 20260903203841 | 87 | 140 | 1.0 | 2.0 | 0.00 | 0.01 | 0.01 | 72 | 1013.5 |
| 20260903203525 | 86 | 0 | 0.0 | 3.0 | 0.00 | 0.01 | 0.01 | 72 | 1014.2 |
| 20260903203353 | 87 | 168 | 0.0 | 3.0 | 0.00 | 0.01 | 0.01 | 73 | 1013.5 |
| 20260903203046 | 86 | 0 | 0.0 | 5.0 | 0.00 | 0.01 | 0.01 | 72 | 1014.3 |
| 20260903202824 | 87 | 142 | 0.0 | 3.0 | 0.00 | 0.01 | 0.01 | 73 | 1013.6 |
| 20260903202528 | 86 | 0 | 0.0 | 6.0 | 0.00 | 0.01 | 0.01 | 72 | 1014.3 |
| 20260903202322 | 86 | 158 | 1.0 | 5.0 | 0.00 | 0.01 | 0.01 | 74 | 1013.8 |
| 20260903202030 | 86 | 0 | 0.0 | 6.0 | 0.00 | 0.01 | 0.01 | 73 | 1014.4 |
| 20260903201814 | 86 | 194 | 0.0 | 2.0 | 0.00 | 0.01 | 0.01 | 73 | 1013.8 |
| 20260903201544 | 85 | 0 | 0.0 | 2.0 | 0.00 | 0.01 | 0.01 | 74 | 1014.4 |
| 20260903201330 | 86 | 198 | 0.0 | 2.0 | 0.00 | 0.01 | 0.01 | 77 | 1014.0 |
| 20260903201028 | 85 | 0 | 0.0 | 2.0 | 0.00 | 0.01 | 0.01 | 74 | 1014.5 |
| 20260903200822 | 86 | 198 | 0.0 | 2.0 | 0.00 | 0.01 | 0.01 | 74 | 1014.0 |
| 20260903200525 | 85 | 0 | 0.0 | 5.0 | 0.00 | 0.01 | 0.01 | 74 | 1014.7 |
| 20260903200334 | 86 | 198 | 0.0 | 3.0 | 0.00 | 0.01 | 0.01 | 74 | 1014.2 |
| 20260903200101 | 85 | 0 | 0.0 | 7.0 | 0.00 | 0.01 | 0.01 | 74 | 1014.7 |
| 20260903195827 | 86 | 198 | 0.0 | 7.0 | 0.00 | 0.01 | 0.01 | 73 | 1014.3 |
| 20260903195525 | 85 | 0 | 1.0 | 7.0 | 0.00 | 0.01 | 0.01 | 73 | 1014.8 |
| 20260903195340 | 86 | 145 | 1.0 | 7.0 | 0.00 | 0.01 | 0.01 | 74 | 1014.3 |
| 20260903195026 | 85 | 0 | 0.0 | 4.0 | 0.00 | 0.01 | 0.01 | 75 | 1014.9 |
| 20260903194831 | 86 | 341 | 0.0 | 4.0 | 0.00 | 0.01 | 0.01 | 76 | 1014.4 |
| 20260903194549 | 85 | 0 | 0.0 | 4.0 | 0.00 | 0.01 | 0.01 | 73 | 1015.0 |
| 20260903194322 | 86 | 296 | 1.0 | 4.0 | 0.00 | 0.01 | 0.01 | 74 | 1014.5 |
| 20260903194030 | 85 | 0 | 0.0 | 4.0 | 0.00 | 0.01 | 0.01 | 73 | 1015.0 |
| 20260903193818 | 86 | 190 | 0.0 | 2.0 | 0.00 | 0.01 | 0.01 | 75 | 1014.6 |
| 20260903193525 | 85 | 0 | 0.0 | 2.0 | 0.00 | 0.01 | 0.01 | 73 | 1015.0 |
| 20260903193329 | 85 | 190 | 0.0 | 2.0 | 0.00 | 0.01 | 0.01 | 75 | 1014.7 |
| 20260903193055 | 85 | 0 | 0.0 | 3.0 | 0.00 | 0.01 | 0.01 | 73 | 1015.1 |
| 20260903192820 | 85 | 193 | 0.0 | 3.0 | 0.00 | 0.01 | 0.01 | 77 | 1014.7 |
| 20260903192525 | 84 | 0 | 0.0 | 4.0 | 0.00 | 0.01 | 0.01 | 75 | 1015.2 |
| 20260903192332 | 84 | 227 | 0.0 | 4.0 | 0.00 | 0.01 | 0.01 | 77 | 1014.8 |
| 20260903192025 | 84 | 0 | 0.0 | 4.0 | 0.00 | 0.01 | 0.01 | 76 | 1015.3 |
| 20260903191824 | 84 | 319 | 1.0 | 4.0 | 0.00 | 0.01 | 0.01 | 77 | 1014.9 |
| 20260903191555 | 84 | 14 | 0.0 | 3.0 | 0.00 | 0.01 | 0.01 | 75 | 1015.3 |
| 20260903191355 | 84 | 190 | 0.0 | 1.0 | 0.00 | 0.01 | 0.01 | 78 | 1014.9 |
| 20260903191025 | 83 | 0 | 0.0 | 0.0 | 0.00 | 0.01 | 0.01 | 77 | 1015.4 |
| 20260903190827 | 84 | 190 | 0.0 | 0.0 | 0.00 | 0.01 | 0.01 | 77 | 1015.0 |
| 20260903190525 | 83 | 0 | 0.0 | 1.0 | 0.00 | 0.01 | 0.01 | 77 | 1015.5 |
| 20260903190322 | 84 | 190 | 0.0 | 0.0 | 0.00 | 0.01 | 0.01 | 78 | 1015.1 |
| 20260903190055 | 83 | 0 | 0.0 | 1.0 | 0.00 | 0.01 | 0.01 | 78 | 1015.6 |
| 20260903185818 | 83 | 182 | 0.0 | 1.0 | 0.00 | 0.20 | 0.01 | 77 | 1015.2 |
| 20260903185528 | 83 | 0 | 0.0 | 3.0 | 0.00 | 0.16 | 0.01 | 76 | 1015.6 |
| 20260903185354 | 83 | 180 | 0.0 | 3.0 | 0.00 | 0.20 | 0.01 | 78 | 1015.2 |
| 20260903185028 | 83 | 0 | 0.0 | 3.0 | 0.00 | 0.16 | 0.01 | 76 | 1015.7 |
| 20260903184826 | 83 | 180 | 0.0 | 3.0 | 0.00 | 0.20 | 0.01 | 77 | 1015.4 |
| 20260903184547 | 83 | 0 | 0.0 | 2.0 | 0.00 | 0.16 | 0.01 | 76 | 1015.8 |
| 20260903184319 | 83 | 190 | 0.0 | 2.0 | 0.00 | 0.20 | 0.01 | 77 | 1015.4 |
| 20260903184027 | 82 | 0 | 0.0 | 2.0 | 0.00 | 0.16 | 0.01 | 79 | 1015.8 |
| 20260903183832 | 83 | 245 | 0.0 | 2.0 | 0.00 | 0.20 | 0.01 | 78 | 1015.3 |
| 20260903183527 | 82 | 0 | 0.0 | 2.0 | 0.00 | 0.16 | 0.01 | 76 | 1015.8 |
| 20260903183326 | 83 | 246 | 0.0 | 2.0 | 0.00 | 0.20 | 0.01 | 78 | 1015.4 |
| 20260903183045 | 82 | 0 | 0.0 | 1.0 | 0.00 | 0.16 | 0.01 | 77 | 1015.8 |
| 20260903182823 | 83 | 250 | 0.0 | 1.0 | 0.00 | 0.20 | 0.01 | 77 | 1015.4 |
| 20260903182528 | 82 | 0 | 0.0 | 3.0 | 0.00 | 0.16 | 0.01 | 77 | 1015.7 |
| 20260903182320 | 83 | 358 | 0.0 | 3.0 | 0.00 | 0.20 | 0.01 | 78 | 1015.4 |
| 20260903182024 | 82 | 0 | 0.0 | 3.0 | 0.01 | 0.16 | 0.01 | 78 | 1015.9 |
| 20260903181834 | 82 | 357 | 0.0 | 3.0 | 0.01 | 0.20 | 0.01 | 78 | 1015.4 |
| 20260903181543 | 82 | 293 | 0.0 | 1.0 | 0.01 | 0.16 | 0.01 | 78 | 1015.9 |
| 20260903181327 | 82 | 191 | 0.0 | 1.0 | 0.01 | 0.20 | 0.01 | 78 | 1015.4 |
| 20260903181029 | 82 | 0 | 0.0 | 1.0 | 0.01 | 0.16 | 0.01 | 78 | 1015.9 |
| 20260903180823 | 82 | 227 | 0.0 | 1.0 | 0.01 | 0.20 | 0.01 | 78 | 1015.5 |
| 20260903180526 | 81 | 0 | 0.0 | 1.0 | 0.01 | 0.16 | 0.01 | 78 | 1016.1 |
| 20260903180335 | 82 | 262 | 0.0 | 1.0 | 0.01 | 0.20 | 0.01 | 81 | 1015.6 |
| 20260903180043 | 81 | 0 | 0.0 | 0.0 | 0.01 | 0.16 | 0.01 | 80 | 1015.9 |
| 20260903175851 | 82 | 262 | 0.0 | 0.0 | 0.01 | 0.28 | 0.01 | 80 | 1015.5 |
| 20260903175523 | 81 | 0 | 0.0 | 0.0 | 0.01 | 0.28 | 0.01 | 79 | 1015.9 |
| 20260903175326 | 82 | 192 | 0.0 | 0.0 | 0.01 | 0.28 | 0.01 | 79 | 1015.4 |
| 20260903175027 | 81 | 0 | 0.0 | 1.0 | 0.01 | 0.28 | 0.01 | 78 | 1015.6 |
| 20260903174839 | 82 | 192 | 0.0 | 1.0 | 0.01 | 0.28 | 0.01 | 78 | 1015.2 |
| 20260903174547 | 81 | 0 | 0.0 | 2.0 | 0.01 | 0.28 | 0.01 | 79 | 1015.8 |
| 20260903174330 | 81 | 192 | 0.0 | 2.0 | 0.01 | 0.28 | 0.01 | 78 | 1015.4 |
| 20260903174029 | 81 | 0 | 0.0 | 2.0 | 0.01 | 0.28 | 0.01 | 78 | 1016.0 |
| 20260903173824 | 81 | 188 | 0.0 | 2.0 | 0.01 | 0.28 | 0.01 | 80 | 1015.7 |
| 20260903173527 | 81 | 0 | 0.0 | 2.0 | 0.01 | 0.28 | 0.01 | 80 | 1016.4 |
| 20260903173318 | 81 | 188 | 0.0 | 2.0 | 0.01 | 0.28 | 0.01 | 81 | 1016.1 |
| 20260903173046 | 80 | 0 | 0.0 | 3.0 | 0.01 | 0.28 | 0.01 | 80 | 1016.7 |
| 20260903172854 | 81 | 188 | 0.0 | 3.0 | 0.01 | 0.28 | 0.01 | 81 | 1016.2 |
| 20260903172525 | 80 | 0 | 0.0 | 3.0 | 0.01 | 0.28 | 0.01 | 80 | 1016.8 |
| 20260903172345 | 81 | 213 | 0.0 | 3.0 | 0.01 | 0.28 | 0.01 | 81 | 1016.3 |
| 20260903172027 | 80 | 0 | 0.0 | 4.0 | 0.00 | 0.27 | 0.00 | 81 | 1017.1 |
| 20260903171819 | 81 | 174 | 0.0 | 4.0 | 0.00 | 0.27 | 0.00 | 82 | 1016.5 |
| 20260903171552 | 80 | 0 | 0.0 | 4.0 | 0.00 | 0.27 | 0.00 | 83 | 1017.1 |
| 20260903171332 | 80 | 173 | 0.0 | 4.0 | 0.00 | 0.27 | 0.00 | 83 | 1016.6 |
| 20260903171027 | 80 | 0 | 0.0 | 4.0 | 0.00 | 0.27 | 0.00 | 82 | 1017.2 |
| 20260903170847 | 80 | 197 | 0.0 | 4.0 | 0.00 | 0.27 | 0.00 | 83 | 1016.7 |
| 20260903170528 | 79 | 0 | 0.0 | 4.0 | 0.00 | 0.27 | 0.00 | 83 | 1017.2 |
| 20260903170318 | 80 | 158 | 0.0 | 2.0 | 0.00 | 0.27 | 0.00 | 85 | 1016.7 |
| 20260903170056 | 79 | 0 | 0.0 | 2.0 | 0.00 | 0.27 | 0.00 | 83 | 1017.3 |
| 20260903165851 | 79 | 153 | 0.0 | 2.0 | 0.00 | 0.27 | 0.00 | 86 | 1016.7 |
| 20260903165525 | 78 | 0 | 0.0 | 0.0 | 0.00 | 0.27 | 0.00 | 87 | 1017.4 |
| 20260903165317 | 79 | 241 | 0.0 | 0.0 | 0.00 | 0.27 | 0.00 | 87 | 1016.9 |
| 20260903165030 | 78 | 0 | 0.0 | 0.0 | 0.00 | 0.27 | 0.00 | 88 | 1017.5 |
| 20260903164834 | 78 | 242 | 0.0 | 0.0 | 0.00 | 0.27 | 0.00 | 88 | 1017.0 |
| 20260903164552 | 77 | 0 | 0.0 | 0.0 | 0.00 | 0.27 | 0.00 | 87 | 1017.5 |
| 20260903164347 | 78 | 242 | 0.0 | 0.0 | 0.00 | 0.27 | 0.00 | 88 | 1017.1 |
| 20260903164026 | 77 | 0 | 0.0 | 0.0 | 0.00 | 0.27 | 0.00 | 88 | 1017.6 |
| 20260903163820 | 78 | 242 | 0.0 | 0.0 | 0.00 | 0.27 | 0.00 | 88 | 1017.1 |
| 20260903163534 | 77 | 0 | 0.0 | 0.0 | 0.00 | 0.27 | 0.00 | 88 | 1017.6 |
| 20260903163333 | 78 | 205 | 0.0 | 0.0 | 0.00 | 0.27 | 0.00 | 88 | 1017.0 |
| 20260903163048 | 77 | 0 | 0.0 | 2.0 | 0.00 | 0.27 | 0.00 | 89 | 1017.4 |
| 20260903162828 | 77 | 205 | 0.0 | 2.0 | 0.00 | 0.27 | 0.00 | 90 | 1016.9 |
| 20260903162526 | 77 | 0 | 0.0 | 2.0 | 0.00 | 0.27 | 0.00 | 91 | 1017.5 |
| 20260903162320 | 77 | 206 | 0.0 | 2.0 | 0.00 | 0.27 | 0.00 | 91 | 1016.9 |
| 20260903162026 | 76 | 0 | 0.0 | 0.0 | 0.00 | 0.27 | 0.00 | 90 | 1017.6 |
| 20260903161813 | 77 | 352 | 0.0 | 0.0 | 0.00 | 0.27 | 0.00 | 90 | 1017.2 |
| 20260903161546 | 76 | 0 | 0.0 | 0.0 | 0.00 | 0.27 | 0.00 | 90 | 1017.9 |
| 20260903161330 | 77 | 352 | 0.0 | 0.0 | 0.00 | 0.27 | 0.00 | 91 | 1017.4 |
| 20260903161025 | 76 | 0 | 0.0 | 0.0 | 0.00 | 0.27 | 0.00 | 91 | 1018.0 |
| 20260903160824 | 77 | 352 | 0.0 | 0.0 | 0.00 | 0.27 | 0.00 | 91 | 1017.4 |
| 20260903160524 | 76 | 0 | 0.0 | 0.0 | 0.00 | 0.27 | 0.00 | 90 | 1018.1 |
| 20260903160321 | 77 | 352 | 0.0 | 0.0 | 0.00 | 0.27 | 0.00 | 90 | 1017.7 |
| 20260903160100 | 76 | 0 | 0.0 | 0.0 | 0.00 | 0.27 | 0.00 | 90 | 1018.7 |
| 20260903155817 | 77 | 359 | 0.0 | 0.0 | 0.00 | 0.27 | 0.00 | 90 | 1018.2 |
| 20260903155528 | 76 | 0 | 0.0 | 0.0 | 0.00 | 0.27 | 0.00 | 89 | 1018.6 |
| 20260903155329 | 77 | 217 | 0.0 | 0.0 | 0.00 | 0.27 | 0.00 | 89 | 1017.9 |
| 20260903155029 | 76 | 0 | 0.0 | 3.0 | 0.00 | 0.27 | 0.00 | 89 | 1018.4 |
| 20260903154826 | 77 | 217 | 0.0 | 1.0 | 0.00 | 0.27 | 0.00 | 90 | 1018.0 |
| 20260903154545 | 76 | 0 | 0.0 | 3.0 | 0.00 | 0.27 | 0.00 | 89 | 1018.8 |
| 20260903154321 | 77 | 217 | 0.0 | 3.0 | 0.00 | 0.27 | 0.00 | 90 | 1018.2 |
| 20260903154026 | 76 | 0 | 0.0 | 7.0 | 0.00 | 0.27 | 0.00 | 90 | 1018.8 |
| 20260903153814 | 77 | 196 | 0.0 | 7.0 | 0.00 | 0.27 | 0.00 | 90 | 1018.6 |
| 20260903153525 | 76 | 0 | 0.0 | 7.0 | 0.00 | 0.27 | 0.00 | 90 | 1019.4 |
| 20260903153330 | 77 | 168 | 2.0 | 7.0 | 0.00 | 0.27 | 0.00 | 90 | 1019.0 |
| 20260903153045 | 77 | 0 | 0.0 | 4.0 | 0.00 | 0.27 | 0.00 | 91 | 1019.3 |
| 20260903152826 | 77 | 18 | 1.0 | 4.0 | 0.00 | 0.27 | 0.00 | 91 | 1018.8 |
| 20260903152528 | 77 | 0 | 0.0 | 2.0 | 0.00 | 0.27 | 0.00 | 91 | 1019.1 |
| 20260903152319 | 77 | 45 | 0.0 | 2.0 | 0.00 | 0.27 | 0.00 | 91 | 1018.5 |
| 20260903152024 | 77 | 0 | 0.0 | 2.0 | 0.00 | 0.27 | 0.00 | 90 | 1019.0 |
| 20260903151832 | 77 | 286 | 0.0 | 0.0 | 0.00 | 0.27 | 0.00 | 91 | 1018.1 |
| 20260903151545 | 77 | 0 | 0.0 | 0.0 | 0.00 | 0.27 | 0.00 | 90 | 1018.3 |
| 20260903151324 | 77 | 286 | 0.0 | 0.0 | 0.00 | 0.27 | 0.00 | 90 | 1017.6 |
| 20260903151024 | 77 | 0 | 0.0 | 1.0 | 0.00 | 0.27 | 0.00 | 90 | 1017.9 |
| 20260903150818 | 77 | 190 | 0.0 | 1.0 | 0.00 | 0.27 | 0.00 | 90 | 1017.3 |
| 20260903150526 | 77 | 0 | 0.0 | 3.0 | 0.00 | 0.27 | 0.00 | 89 | 1017.9 |
| 20260903150354 | 77 | 190 | 0.0 | 3.0 | 0.00 | 0.27 | 0.00 | 90 | 1017.3 |
| 20260903150107 | 77 | 0 | 0.0 | 3.0 | 0.00 | 0.27 | 0.00 | 91 | 1018.0 |
| 20260903145828 | 77 | 329 | 0.0 | 1.0 | 0.00 | 0.27 | 0.00 | 92 | 1017.6 |
| 20260903145525 | 76 | 0 | 0.0 | 1.0 | 0.00 | 0.27 | 0.00 | 91 | 1018.2 |
| 20260903145320 | 77 | 296 | 0.0 | 1.0 | 0.00 | 0.27 | 0.00 | 91 | 1017.5 |
| 20260903145029 | 76 | 0 | 0.0 | 1.0 | 0.00 | 0.27 | 0.00 | 90 | 1018.1 |
| 20260903144814 | 77 | 221 | 0.0 | 1.0 | 0.00 | 0.27 | 0.00 | 91 | 1017.4 |
| 20260903144555 | 76 | 0 | 0.0 | 1.0 | 0.00 | 0.27 | 0.00 | 91 | 1018.0 |
| 20260903144331 | 76 | 231 | 0.0 | 0.0 | 0.00 | 0.27 | 0.00 | 91 | 1017.4 |
| 20260903144025 | 76 | 0 | 0.0 | 0.0 | 0.00 | 0.27 | 0.00 | 91 | 1018.1 |
| 20260903143827 | 76 | 308 | 0.0 | 0.0 | 0.00 | 0.27 | 0.00 | 92 | 1017.4 |
| 20260903143525 | 76 | 0 | 0.0 | 0.0 | 0.00 | 0.27 | 0.00 | 91 | 1017.9 |
| 20260903143320 | 76 | 205 | 0.0 | 0.0 | 0.00 | 0.27 | 0.00 | 92 | 1017.3 |
| 20260903143048 | 76 | 0 | 0.0 | 2.0 | 0.00 | 0.27 | 0.00 | 91 | 1017.8 |
| 20260903142812 | 76 | 169 | 0.0 | 2.0 | 0.00 | 0.27 | 0.00 | 91 | 1017.1 |
| 20260903142525 | 76 | 0 | 0.0 | 2.0 | 0.00 | 0.27 | 0.00 | 91 | 1017.8 |
| 20260903142348 | 76 | 169 | 0.0 | 2.0 | 0.00 | 0.27 | 0.00 | 91 | 1017.3 |
| 20260903142025 | 76 | 0 | 0.0 | 2.0 | 0.00 | 0.27 | 0.00 | 91 | 1017.7 |
| 20260903141820 | 76 | 165 | 0.0 | 2.0 | 0.00 | 0.27 | 0.00 | 92 | 1017.1 |
| 20260903141555 | 75 | 0 | 0.0 | 2.0 | 0.00 | 0.27 | 0.00 | 92 | 1017.6 |
| 20260903141317 | 76 | 163 | 0.0 | 2.0 | 0.00 | 0.27 | 0.00 | 94 | 1017.0 |
| 20260903141028 | 75 | 0 | 0.0 | 2.0 | 0.00 | 0.27 | 0.00 | 92 | 1017.6 |
| 20260903140829 | 75 | 254 | 0.0 | 0.0 | 0.00 | 0.27 | 0.00 | 93 | 1016.9 |
| 20260903140525 | 75 | 0 | 0.0 | 0.0 | 0.00 | 0.27 | 0.00 | 93 | 1017.4 |
| 20260903140326 | 75 | 258 | 0.0 | 0.0 | 0.00 | 0.27 | 0.00 | 93 | 1016.8 |
| 20260903140047 | 74 | 0 | 0.0 | 1.0 | 0.00 | 0.27 | 0.00 | 94 | 1017.5 |
| 20260903135823 | 75 | 327 | 0.0 | 1.0 | 0.00 | 0.27 | 0.00 | 95 | 1016.9 |
| 20260903135526 | 74 | 0 | 0.0 | 3.0 | 0.00 | 0.27 | 0.00 | 94 | 1017.5 |
| 20260903135315 | 74 | 327 | 0.0 | 3.0 | 0.00 | 0.27 | 0.00 | 95 | 1017.2 |
| 20260903135030 | 74 | 0 | 0.0 | 3.0 | 0.00 | 0.27 | 0.00 | 94 | 1017.8 |
| 20260903134828 | 74 | 180 | 0.0 | 0.0 | 0.00 | 0.27 | 0.00 | 95 | 1017.2 |
| 20260903134546 | 74 | 0 | 0.0 | 0.0 | 0.00 | 0.27 | 0.00 | 95 | 1017.4 |
| 20260903134320 | 74 | 180 | 0.0 | 0.0 | 0.00 | 0.27 | 0.00 | 95 | 1016.7 |
| 20260903134023 | 73 | 0 | 0.0 | 0.0 | 0.00 | 0.27 | 0.00 | 95 | 1017.3 |
| 20260903133834 | 74 | 180 | 0.0 | 0.0 | 0.00 | 0.27 | 0.00 | 95 | 1016.8 |
| 20260903133526 | 73 | 0 | 0.0 | 0.0 | 0.00 | 0.27 | 0.00 | 95 | 1017.3 |
| 20260903133346 | 74 | 183 | 0.0 | 0.0 | 0.00 | 0.27 | 0.00 | 95 | 1016.9 |
| 20260903133045 | 73 | 0 | 0.0 | 0.0 | 0.00 | 0.27 | 0.00 | 95 | 1017.5 |
| 20260903132820 | 73 | 183 | 0.0 | 0.0 | 0.00 | 0.27 | 0.00 | 96 | 1016.8 |
| 20260903132526 | 73 | 0 | 0.0 | 5.0 | 0.00 | 0.27 | 0.00 | 95 | 1017.3 |
| 20260903132315 | 73 | 183 | 0.0 | 5.0 | 0.00 | 0.27 | 0.00 | 96 | 1016.8 |
| 20260903132027 | 73 | 0 | 0.0 | 5.0 | 0.00 | 0.27 | 0.00 | 95 | 1017.4 |
| 20260903131830 | 73 | 186 | 0.0 | 5.0 | 0.00 | 0.27 | 0.00 | 96 | 1016.8 |
| 20260903131544 | 73 | 0 | 0.0 | 1.0 | 0.00 | 0.27 | 0.00 | 95 | 1017.5 |
| 20260903131324 | 73 | 186 | 0.0 | 0.0 | 0.00 | 0.27 | 0.00 | 96 | 1017.0 |
| 20260903131025 | 73 | 0 | 0.0 | 6.0 | 0.00 | 0.27 | 0.00 | 95 | 1017.7 |
| 20260903130817 | 73 | 186 | 0.0 | 5.0 | 0.00 | 0.27 | 0.00 | 96 | 1017.3 |
| 20260903130523 | 73 | 0 | 0.0 | 6.0 | 0.00 | 0.27 | 0.00 | 95 | 1018.1 |
| 20260903130331 | 73 | 186 | 0.0 | 5.0 | 0.00 | 0.27 | 0.00 | 96 | 1017.5 |
| 20260903130044 | 73 | 0 | 0.0 | 6.0 | 0.00 | 0.27 | 0.00 | 96 | 1018.2 |
| 20260903125824 | 73 | 151 | 0.0 | 1.0 | 0.00 | 0.27 | 0.00 | 96 | 1017.7 |
| 20260903125528 | 73 | 0 | 0.0 | 1.0 | 0.00 | 0.27 | 0.00 | 96 | 1018.4 |
| 20260903125321 | 73 | 151 | 0.0 | 1.0 | 0.00 | 0.27 | 0.00 | 97 | 1017.9 |
| 20260903125034 | 72 | 0 | 0.0 | 0.0 | 0.00 | 0.27 | 0.00 | 96 | 1018.5 |
| 20260903124816 | 73 | 150 | 0.0 | 0.0 | 0.00 | 0.27 | 0.00 | 97 | 1017.9 |
| 20260903124553 | 72 | 0 | 0.0 | 0.0 | 0.00 | 0.27 | 0.00 | 96 | 1018.6 |
| 20260903124328 | 73 | 150 | 0.0 | 0.0 | 0.00 | 0.27 | 0.00 | 97 | 1018.0 |
| 20260903124025 | 72 | 0 | 0.0 | 0.0 | 0.00 | 0.27 | 0.00 | 96 | 1018.5 |
| 20260903123821 | 72 | 148 | 0.0 | 0.0 | 0.00 | 0.27 | 0.00 | 97 | 1018.0 |
| 20260903123531 | 72 | 0 | 0.0 | 0.0 | 0.00 | 0.27 | 0.00 | 96 | 1018.6 |
| 20260903123333 | 72 | 148 | 0.0 | 0.0 | 0.00 | 0.27 | 0.00 | 97 | 1018.0 |
| 20260903123044 | 72 | 0 | 0.0 | 0.0 | 0.00 | 0.27 | 0.00 | 97 | 1018.6 |
| 20260903122825 | 72 | 148 | 0.0 | 0.0 | 0.00 | 0.27 | 0.00 | 97 | 1017.9 |
| 20260903122524 | 72 | 0 | 0.0 | 0.0 | 0.00 | 0.27 | 0.00 | 97 | 1018.6 |
| 20260903122317 | 72 | 111 | 0.0 | 0.0 | 0.00 | 0.27 | 0.00 | 97 | 1018.1 |
| 20260903122027 | 72 | 0 | 0.0 | 0.0 | 0.00 | 0.27 | 0.00 | 97 | 1018.8 |
| 20260903121829 | 72 | 111 | 327.0 | 0.0 | 0.00 | 0.27 | 0.00 | 97 | 1018.2 |
| 20260903121543 | 72 | 0 | 0.0 | 0.0 | 0.00 | 0.27 | 0.00 | 97 | 1018.8 |
| 20260903121325 | 72 | 0.0 | 0.0 | 0.00 | 0.27 | 0.00 | 97 | 1018.2 | |
| 20260903121025 | 71 | 0 | 0.0 | 0.0 | 0.00 | 0.27 | 0.00 | 97 | 1018.7 |
| 20260903120822 | 72 | 0.0 | 0.0 | 0.00 | 0.27 | 0.00 | 97 | 1018.1 | |
| 20260903120527 | 71 | 0.0 | 0.0 | 0.00 | 0.27 | 0.00 | 97 | 1018.8 | |
| 20260903120335 | 72 | 0.0 | 0.0 | 0.00 | 0.27 | 0.00 | 97 | 1018.4 | |
| 20260903115830 | 72 | 0.0 | 0.0 | 0.00 | 0.27 | 0.00 | 97 | 1018.6 | |
| 20260903115527 | 71 | 0.0 | 0.0 | 0.00 | 0.27 | 0.00 | 97 | 1019.3 | |
| 20260903115344 | 72 | 0.0 | 0.0 | 0.00 | 0.27 | 0.00 | 97 | 1018.7 | |
| 20260903115027 | 71 | 0.0 | 0.0 | 0.00 | 0.27 | 0.00 | 97 | 1019.4 | |
| 20260903114837 | 72 | 0.0 | 0.0 | 0.00 | 0.27 | 0.00 | 97 | 1018.7 | |
| 20260903114545 | 71 | 0.0 | 0.0 | 0.00 | 0.27 | 0.00 | 97 | 1019.3 | |
| 20260903114330 | 72 | 0.0 | 0.0 | 0.00 | 0.27 | 0.00 | 97 | 1018.6 | |
| 20260903114024 | 71 | 0.0 | 0.0 | 0.00 | 0.27 | 0.00 | 97 | 1019.2 | |
| 20260903113826 | 72 | 0.0 | 0.0 | 0.00 | 0.27 | 0.00 | 97 | 1018.6 | |
| 20260903113525 | 71 | 0.0 | 0.0 | 0.00 | 0.27 | 0.00 | 97 | 1019.2 | |
| 20260903113323 | 72 | 0.0 | 0.0 | 0.00 | 0.27 | 0.00 | 97 | 1018.6 | |
| 20260903113044 | 71 | 0.0 | 0.0 | 0.00 | 0.27 | 0.00 | 97 | 1019.3 | |
| 20260903112820 | 72 | 0.0 | 0.0 | 0.00 | 0.27 | 0.00 | 97 | 1018.8 | |
| 20260903112526 | 71 | 0.0 | 0.0 | 0.00 | 0.27 | 0.00 | 97 | 1019.3 | |
| 20260903112338 | 72 | 0.0 | 0.0 | 0.00 | 0.27 | 0.00 | 97 | 1018.7 | |
| 20260903112027 | 71 | 0.0 | 0.0 | 0.00 | 0.27 | 0.00 | 97 | 1019.2 | |
| 20260903111831 | 72 | 0.0 | 0.0 | 0.00 | 0.27 | 0.00 | 97 | 1018.5 | |
| 20260903111543 | 71 | 0.0 | 0.0 | 0.00 | 0.27 | 0.00 | 97 | 1018.9 | |
| 20260903111325 | 72 | 0.0 | 0.0 | 0.00 | 0.27 | 0.00 | 97 | 1018.4 | |
| 20260903111028 | 71 | 0.0 | 0.0 | 0.00 | 0.27 | 0.00 | 97 | 1019.0 | |
| 20260903110842 | 71 | 0.0 | 0.0 | 0.00 | 0.27 | 0.00 | 97 | 1018.4 | |
| 20260903110529 | 71 | 0.0 | 0.0 | 0.00 | 0.27 | 0.00 | 97 | 1019.0 | |
| 20260903110338 | 71 | 0.0 | 0.0 | 0.00 | 0.27 | 0.00 | 97 | 1018.2 | |
| 20260903110045 | 71 | 0.0 | 0.0 | 0.00 | 0.27 | 0.00 | 97 | 1018.5 | |
| 20260903105832 | 71 | 0.0 | 0.0 | 0.00 | 0.27 | 0.00 | 97 | 1017.6 | |
| 20260903105527 | 71 | 0.0 | 0.0 | 0.00 | 0.27 | 0.00 | 97 | 1018.1 | |
| 20260903105325 | 71 | 0.0 | 0.0 | 0.00 | 0.27 | 0.00 | 97 | 1017.4 | |
| 20260903105025 | 71 | 0.0 | 0.0 | 0.00 | 0.27 | 0.00 | 97 | 1017.9 | |
| 20260903104819 | 71 | 0.0 | 0.0 | 0.00 | 0.27 | 0.00 | 97 | 1017.4 | |
| 20260903104548 | 71 | 0.0 | 0.0 | 0.00 | 0.27 | 0.00 | 97 | 1018.0 | |
| 20260903104315 | 71 | 0.0 | 0.0 | 0.00 | 0.27 | 0.00 | 97 | 1017.4 | |
| 20260903104024 | 71 | 0.0 | 0.0 | 0.00 | 0.27 | 0.00 | 97 | 1018.0 | |
| 20260903103832 | 71 | 0.0 | 0.0 | 0.00 | 0.27 | 0.00 | 97 | 1017.5 | |
| 20260903103528 | 71 | 0.0 | 0.0 | 0.00 | 0.27 | 0.00 | 97 | 1018.0 | |
| 20260903103348 | 71 | 0.0 | 0.0 | 0.00 | 0.27 | 0.00 | 97 | 1017.4 | |
| 20260903103046 | 70 | 0.0 | 0.0 | 0.00 | 0.27 | 0.00 | 97 | 1017.8 | |
| 20260903102824 | 71 | 0.0 | 0.0 | 0.00 | 0.27 | 0.00 | 97 | 1017.2 | |
| 20260903102526 | 70 | 0.0 | 0.0 | 0.00 | 0.27 | 0.00 | 97 | 1017.7 | |
| 20260903102319 | 71 | 0.0 | 0.0 | 0.00 | 0.27 | 0.00 | 97 | 1016.9 | |
| 20260903102027 | 70 | 0.0 | 0.0 | 0.00 | 0.27 | 0.00 | 97 | 1017.5 | |
| 20260903101831 | 71 | 0.0 | 0.0 | 0.00 | 0.27 | 0.00 | 97 | 1017.0 | |
| 20260903101555 | 70 | 0.0 | 0.0 | 0.00 | 0.27 | 0.00 | 97 | 1017.6 | |
| 20260903101328 | 71 | 0.0 | 0.0 | 0.00 | 0.27 | 0.00 | 97 | 1017.1 | |
| 20260903101026 | 70 | 0.0 | 0.0 | 0.00 | 0.27 | 0.00 | 97 | 1017.5 | |
| 20260903100821 | 71 | 0.0 | 0.0 | 0.00 | 0.27 | 0.00 | 97 | 1016.9 | |
| 20260903100528 | 70 | 0.0 | 0.0 | 0.00 | 0.27 | 0.00 | 97 | 1017.5 | |
| 20260903100320 | 70 | 0.0 | 0.0 | 0.00 | 0.27 | 0.00 | 97 | 1017.0 | |
| 20260903100044 | 70 | 0.0 | 0.0 | 0.00 | 0.27 | 0.00 | 97 | 1017.4 | |
| 20260903095832 | 70 | 0.0 | 0.0 | 0.00 | 0.27 | 0.00 | 97 | 1016.6 | |
| 20260903095524 | 70 | 0.0 | 0.0 | 0.00 | 0.27 | 0.00 | 97 | 1017.2 | |
| 20260903095326 | 70 | 0.0 | 0.0 | 0.00 | 0.27 | 0.00 | 97 | 1016.6 | |
| 20260903095026 | 70 | 0.0 | 0.0 | 0.00 | 0.27 | 0.00 | 96 | 1017.2 | |
| 20260903094818 | 70 | 0.0 | 0.0 | 0.00 | 0.27 | 0.00 | 97 | 1016.6 | |
| 20260903094547 | 70 | 0.0 | 0.0 | 0.00 | 0.27 | 0.00 | 96 | 1017.2 | |
| 20260903094315 | 70 | 0.0 | 0.0 | 0.00 | 0.27 | 0.00 | 97 | 1016.5 | |
| 20260903094024 | 69 | 0.0 | 0.0 | 0.00 | 0.27 | 0.00 | 96 | 1017.2 | |
| 20260903093812 | 70 | 0.0 | 0.0 | 0.00 | 0.27 | 0.00 | 97 | 1016.6 | |
| 20260903093622 | 69 | 0.0 | 0.0 | 0.00 | 0.27 | 0.00 | 96 | 1017.2 | |
| 20260903093349 | 70 | 0.0 | 0.0 | 0.00 | 0.27 | 0.00 | 97 | 1016.7 | |
| 20260903093103 | 69 | 0.0 | 0.0 | 0.00 | 0.27 | 0.00 | 96 | 1017.3 | |
| 20260903092826 | 70 | 0.0 | 0.0 | 0.00 | 0.27 | 0.00 | 97 | 1016.7 | |
| 20260903092526 | 69 | 0.0 | 0.0 | 0.00 | 0.27 | 0.00 | 96 | 1017.3 | |
| 20260903092321 | 70 | 0.0 | 0.0 | 0.00 | 0.27 | 0.00 | 97 | 1016.8 | |
| 20260903092028 | 69 | 0.0 | 0.0 | 0.00 | 0.27 | 0.00 | 96 | 1017.3 | |
| 20260903091834 | 70 | 0.0 | 0.0 | 0.00 | 0.27 | 0.00 | 97 | 1016.8 | |
| 20260903091552 | 69 | 0.0 | 0.0 | 0.00 | 0.27 | 0.00 | 96 | 1017.3 | |
| 20260903091327 | 70 | 0.0 | 0.0 | 0.00 | 0.27 | 0.00 | 97 | 1016.8 | |
| 20260903091028 | 69 | 0.0 | 0.0 | 0.00 | 0.27 | 0.00 | 96 | 1017.3 | |
| 20260903090819 | 70 | 0.0 | 0.0 | 0.00 | 0.27 | 0.00 | 97 | 1016.9 | |
| 20260903090527 | 69 | 0.0 | 0.0 | 0.00 | 0.27 | 0.00 | 96 | 1017.4 | |
| 20260903090316 | 70 | 0.0 | 0.0 | 0.00 | 0.27 | 0.00 | 96 | 1016.8 | |
| 20260903090045 | 69 | 0.0 | 0.0 | 0.00 | 0.27 | 0.00 | 96 | 1017.4 | |
| 20260903085812 | 70 | 0.0 | 0.0 | 0.00 | 0.27 | 0.00 | 97 | 1016.9 | |
| 20260903085524 | 70 | 0.0 | 0.0 | 0.00 | 0.27 | 0.00 | 96 | 1017.3 | |
| 20260903085328 | 70 | 0.0 | 0.0 | 0.00 | 0.27 | 0.00 | 97 | 1016.7 | |
| 20260903085026 | 70 | 0.0 | 0.0 | 0.00 | 0.27 | 0.00 | 96 | 1017.3 | |
| 20260903084844 | 70 | 0.0 | 0.0 | 0.00 | 0.27 | 0.00 | 97 | 1016.8 | |
| 20260903084543 | 70 | 0.0 | 0.0 | 0.00 | 0.27 | 0.00 | 96 | 1017.3 | |
| 20260903084320 | 70 | 0.0 | 0.0 | 0.00 | 0.27 | 0.00 | 97 | 1016.7 | |
| 20260903084027 | 70 | 0.0 | 0.0 | 0.00 | 0.27 | 0.00 | 96 | 1017.3 | |
| 20260903083836 | 70 | 0.0 | 0.0 | 0.00 | 0.27 | 0.00 | 97 | 1016.8 | |
| 20260903083525 | 70 | 0.0 | 0.0 | 0.00 | 0.27 | 0.00 | 96 | 1017.2 | |
| 20260903083331 | 70 | 0.0 | 0.0 | 0.00 | 0.27 | 0.00 | 97 | 1016.6 | |
| 20260903083056 | 70 | 0.0 | 0.0 | 0.00 | 0.27 | 0.00 | 96 | 1017.2 | |
| 20260903082824 | 70 | 0.0 | 0.0 | 0.00 | 0.27 | 0.00 | 96 | 1016.7 | |
| 20260903082525 | 70 | 0.0 | 0.0 | 0.00 | 0.27 | 0.00 | 96 | 1017.2 | |
| 20260903082336 | 70 | 0.0 | 0.0 | 0.00 | 0.27 | 0.00 | 96 | 1016.7 | |
| 20260903082025 | 70 | 0.0 | 0.0 | 0.00 | 0.27 | 0.00 | 96 | 1017.0 | |
| 20260903081545 | 70 | 0.0 | 0.0 | 0.00 | 0.27 | 0.00 | 96 | 1017.1 | |
| 20260903081332 | 71 | 0.0 | 0.0 | 0.00 | 0.27 | 0.00 | 97 | 1016.7 | |
| 20260903081024 | 70 | 0.0 | 0.0 | 0.00 | 0.27 | 0.00 | 96 | 1017.2 | |
| 20260903080824 | 71 | 0.0 | 0.0 | 0.00 | 0.27 | 0.00 | 96 | 1016.7 | |
| 20260903080525 | 70 | 0.0 | 0.0 | 0.00 | 0.27 | 0.00 | 96 | 1017.1 | |
| 20260903080317 | 71 | 0.0 | 0.0 | 0.00 | 0.27 | 0.00 | 97 | 1016.6 | |
| 20260903080043 | 70 | 0.0 | 0.0 | 0.00 | 0.27 | 0.00 | 96 | 1017.2 | |
| 20260903075829 | 71 | 0.0 | 0.0 | 0.00 | 0.27 | 0.00 | 97 | 1016.7 | |
| 20260903075525 | 70 | 0.0 | 0.0 | 0.00 | 0.27 | 0.00 | 96 | 1017.2 | |
| 20260903075346 | 71 | 0.0 | 0.0 | 0.00 | 0.27 | 0.00 | 97 | 1016.7 | |
| 20260903075023 | 70 | 0.0 | 0.0 | 0.00 | 0.27 | 0.00 | 96 | 1017.1 | |
| 20260903074821 | 71 | 0.0 | 0.0 | 0.00 | 0.27 | 0.00 | 97 | 1016.6 | |
| 20260903074612 | 70 | 0.0 | 0.0 | 0.00 | 0.27 | 0.00 | 96 | 1017.0 | |
| 20260903074338 | 71 | 0.0 | 0.0 | 0.00 | 0.27 | 0.00 | 97 | 1016.6 | |
| 20260903074027 | 70 | 0.0 | 0.0 | 0.00 | 0.27 | 0.00 | 96 | 1017.1 | |
| 20260903073850 | 71 | 0.0 | 0.0 | 0.00 | 0.27 | 0.00 | 97 | 1016.7 | |
| 20260903073529 | 70 | 0.0 | 0.0 | 0.00 | 0.27 | 0.00 | 96 | 1017.3 | |
| 20260903073342 | 70 | 0.0 | 0.0 | 0.00 | 0.27 | 0.00 | 97 | 1016.7 | |
| 20260903073055 | 70 | 0.0 | 0.0 | 0.00 | 0.27 | 0.00 | 96 | 1017.1 | |
| 20260903072815 | 70 | 0.0 | 0.0 | 0.00 | 0.27 | 0.00 | 97 | 1016.6 | |
| 20260903072524 | 70 | 0.0 | 0.0 | 0.00 | 0.27 | 0.00 | 96 | 1017.0 | |
| 20260903072352 | 70 | 0.0 | 0.0 | 0.00 | 0.27 | 0.00 | 97 | 1016.6 | |
| 20260903072025 | 70 | 0.0 | 0.0 | 0.00 | 0.27 | 0.00 | 96 | 1017.0 | |
| 20260903071824 | 70 | 0.0 | 0.0 | 0.00 | 0.27 | 0.00 | 97 | 1016.6 | |
| 20260903071545 | 70 | 0.0 | 0.0 | 0.00 | 0.27 | 0.00 | 96 | 1017.0 | |
| 20260903071321 | 70 | 0.0 | 0.0 | 0.00 | 0.27 | 0.00 | 97 | 1016.5 | |
| 20260903071023 | 70 | 0.0 | 0.0 | 0.00 | 0.27 | 0.00 | 96 | 1017.0 | |
| 20260903070834 | 70 | 0.0 | 0.0 | 0.00 | 0.27 | 0.00 | 97 | 1016.6 | |
| 20260903070526 | 70 | 0.0 | 0.0 | 0.00 | 0.27 | 0.00 | 96 | 1017.0 | |
| 20260903070345 | 70 | 0.0 | 0.0 | 0.00 | 0.27 | 0.00 | 97 | 1016.5 | |
| 20260903070044 | 70 | 0.0 | 0.0 | 0.00 | 0.27 | 0.00 | 96 | 1016.9 | |
| 20260903065819 | 70 | 0.0 | 0.0 | 0.00 | 0.27 | 0.00 | 97 | 1016.5 | |
| 20260903065528 | 70 | 0.0 | 0.0 | 0.00 | 0.27 | 0.00 | 96 | 1016.9 | |
| 20260903065313 | 70 | 0.0 | 0.0 | 0.00 | 0.27 | 0.00 | 97 | 1016.4 | |
| 20260903065029 | 70 | 0.0 | 0.0 | 0.00 | 0.27 | 0.00 | 96 | 1016.8 | |
| 20260903064830 | 70 | 0.0 | 0.0 | 0.00 | 0.27 | 0.00 | 97 | 1016.4 | |
| 20260903064550 | 70 | 0.0 | 0.0 | 0.00 | 0.27 | 0.00 | 96 | 1016.8 | |
| 20260903064323 | 70 | 0.0 | 0.0 | 0.00 | 0.27 | 0.00 | 97 | 1016.5 | |
| 20260903064025 | 70 | 0.0 | 0.0 | 0.00 | 0.27 | 0.00 | 96 | 1016.9 | |
| 20260903063817 | 70 | 0.0 | 0.0 | 0.00 | 0.27 | 0.00 | 97 | 1016.6 | |
| 20260903063524 | 70 | 0.0 | 0.0 | 0.00 | 0.27 | 0.00 | 96 | 1017.0 | |
| 20260903063331 | 70 | 0.0 | 0.0 | 0.00 | 0.27 | 0.00 | 97 | 1016.6 | |
| 20260903063043 | 70 | 0.0 | 0.0 | 0.00 | 0.27 | 0.00 | 96 | 1017.1 | |
| 20260903062824 | 70 | 0.0 | 0.0 | 0.00 | 0.27 | 0.00 | 97 | 1016.7 | |
| 20260903062525 | 70 | 0.0 | 0.0 | 0.00 | 0.27 | 0.00 | 96 | 1017.0 | |
| 20260903062316 | 70 | 0.0 | 0.0 | 0.00 | 0.27 | 0.00 | 97 | 1016.7 | |
| 20260903062031 | 69 | 0.0 | 0.0 | 0.00 | 0.27 | 0.00 | 96 | 1017.1 | |
| 20260903061829 | 70 | 0.0 | 0.0 | 0.00 | 0.27 | 0.00 | 96 | 1016.7 | |
| 20260903061546 | 69 | 0.0 | 0.0 | 0.00 | 0.27 | 0.00 | 96 | 1017.1 | |
| 20260903061331 | 70 | 0.0 | 0.0 | 0.00 | 0.27 | 0.00 | 96 | 1016.7 | |
| 20260903061029 | 69 | 0.0 | 0.0 | 0.00 | 0.27 | 0.00 | 96 | 1017.1 | |
| 20260903060833 | 70 | 0.0 | 0.0 | 0.00 | 0.27 | 0.00 | 96 | 1016.7 | |
| 20260903060525 | 69 | 0.0 | 0.0 | 0.00 | 0.27 | 0.00 | 96 | 1017.3 | |
| 20260903060326 | 70 | 0.0 | 0.0 | 0.00 | 0.27 | 0.00 | 96 | 1016.8 | |
| 20260903060049 | 69 | 0.0 | 0.0 | 0.00 | 0.27 | 0.00 | 96 | 1017.2 | |
| 20260903055829 | 70 | 0.0 | 0.0 | 0.00 | 0.27 | 0.00 | 96 | 1016.7 | |
| 20260903055525 | 69 | 0.0 | 0.0 | 0.00 | 0.27 | 0.00 | 96 | 1017.1 | |
| 20260903055413 | 70 | 0.0 | 0.0 | 0.00 | 0.27 | 0.00 | 96 | 1016.8 | |
| 20260903055024 | 69 | 0.0 | 0.0 | 0.00 | 0.27 | 0.00 | 96 | 1017.3 | |
| 20260903054821 | 70 | 0.0 | 0.0 | 0.00 | 0.27 | 0.00 | 96 | 1016.8 | |
| 20260903054545 | 69 | 0.0 | 0.0 | 0.00 | 0.27 | 0.00 | 96 | 1017.3 | |
| 20260903054318 | 70 | 0.0 | 0.0 | 0.00 | 0.27 | 0.00 | 96 | 1016.9 | |
| 20260903054025 | 69 | 0.0 | 0.0 | 0.00 | 0.27 | 0.00 | 95 | 1017.4 | |
| 20260903053814 | 70 | 0.0 | 0.0 | 0.00 | 0.27 | 0.00 | 96 | 1016.9 | |
| 20260903053525 | 69 | 0.0 | 0.0 | 0.00 | 0.27 | 0.00 | 95 | 1017.3 | |
| 20260903053330 | 70 | 0.0 | 0.0 | 0.00 | 0.27 | 0.00 | 96 | 1016.8 | |
| 20260903053044 | 69 | 0.0 | 0.0 | 0.00 | 0.27 | 0.00 | 96 | 1017.3 | |
| 20260903052524 | 69 | 0.0 | 0.0 | 0.00 | 0.27 | 0.00 | 95 | 1017.4 | |
| 20260903052330 | 70 | 0.0 | 0.0 | 0.00 | 0.27 | 0.00 | 96 | 1017.0 | |
| 20260903052024 | 70 | 0.0 | 0.0 | 0.00 | 0.27 | 0.00 | 96 | 1017.5 | |
| 20260903051823 | 70 | 0.0 | 0.0 | 0.00 | 0.27 | 0.00 | 96 | 1016.8 | |
| 20260903051547 | 70 | 0.0 | 0.0 | 0.00 | 0.27 | 0.00 | 96 | 1017.3 | |
| 20260903051317 | 70 | 0.0 | 0.0 | 0.00 | 0.27 | 0.00 | 96 | 1016.9 | |
| 20260903051025 | 70 | 0.0 | 0.0 | 0.00 | 0.27 | 0.00 | 96 | 1017.4 | |
| 20260903050832 | 70 | 0.0 | 0.0 | 0.00 | 0.27 | 0.00 | 96 | 1016.9 | |
| 20260903050525 | 70 | 0.0 | 0.0 | 0.00 | 0.27 | 0.00 | 96 | 1017.3 | |
| 20260903050324 | 70 | 0.0 | 0.0 | 0.00 | 0.27 | 0.00 | 96 | 1016.8 | |
| 20260903050046 | 70 | 0.0 | 0.0 | 0.00 | 0.27 | 0.00 | 96 | 1017.4 | |
| 20260903045817 | 70 | 0.0 | 0.0 | 0.00 | 0.27 | 0.00 | 96 | 1016.9 | |
| 20260903045526 | 70 | 0.0 | 0.0 | 0.00 | 0.27 | 0.00 | 96 | 1017.5 | |
| 20260903045314 | 70 | 0.0 | 0.0 | 0.00 | 0.27 | 0.00 | 96 | 1017.0 | |
| 20260903045024 | 70 | 0.0 | 0.0 | 0.00 | 0.27 | 0.00 | 96 | 1017.5 | |
| 20260903044851 | 70 | 0.0 | 0.0 | 0.00 | 0.27 | 0.00 | 96 | 1017.0 | |
| 20260903044543 | 70 | 0.0 | 0.0 | 0.00 | 0.27 | 0.00 | 96 | 1017.5 | |
| 20260903044325 | 70 | 0.0 | 0.0 | 0.00 | 0.27 | 0.00 | 96 | 1017.1 | |
| 20260903044024 | 70 | 0.0 | 0.0 | 0.00 | 0.27 | 0.00 | 95 | 1017.6 | |
| 20260903043818 | 70 | 0.0 | 0.0 | 0.00 | 0.27 | 0.00 | 96 | 1017.2 | |
| 20260903043528 | 70 | 0.0 | 0.0 | 0.00 | 0.27 | 0.00 | 95 | 1017.7 | |
| 20260903043319 | 70 | 0.0 | 0.0 | 0.00 | 0.27 | 0.00 | 96 | 1017.3 | |
| 20260903043043 | 70 | 0.0 | 0.0 | 0.00 | 0.27 | 0.00 | 95 | 1017.9 | |
| 20260903042848 | 70 | 0.0 | 0.0 | 0.00 | 0.27 | 0.00 | 96 | 1017.3 | |
| 20260903042525 | 70 | 0.0 | 0.0 | 0.00 | 0.27 | 0.00 | 95 | 1017.9 | |
| 20260903042325 | 70 | 0.0 | 0.0 | 0.00 | 0.27 | 0.00 | 96 | 1017.4 | |
| 20260903042024 | 70 | 0.0 | 0.0 | 0.00 | 0.27 | 0.00 | 95 | 1018.0 | |
| 20260903041816 | 70 | 0.0 | 0.0 | 0.00 | 0.27 | 0.00 | 96 | 1017.5 | |
| 20260903041550 | 70 | 0.0 | 0.0 | 0.00 | 0.27 | 0.00 | 95 | 1018.0 | |
| 20260903041330 | 70 | 0.0 | 0.0 | 0.00 | 0.27 | 0.00 | 96 | 1017.6 | |
| 20260903041025 | 70 | 0.0 | 0.0 | 0.00 | 0.27 | 0.00 | 95 | 1018.1 | |
| 20260903040823 | 70 | 0.0 | 0.0 | 0.00 | 0.27 | 0.00 | 96 | 1017.7 | |
| 20260903040527 | 70 | 0.0 | 0.0 | 0.00 | 0.27 | 0.00 | 95 | 1018.3 | |
| 20260903040317 | 70 | 0.0 | 0.0 | 0.00 | 0.27 | 0.00 | 96 | 1017.8 | |
| 20260903040046 | 70 | 0.0 | 0.0 | 0.00 | 0.27 | 0.00 | 95 | 1018.3 | |
| 20260903035829 | 70 | 0.0 | 0.0 | 0.00 | 0.27 | 0.27 | 96 | 1017.7 | |
| 20260903035524 | 70 | 0.0 | 0.0 | 0.00 | 0.27 | 0.27 | 95 | 1018.3 | |
| 20260903035319 | 71 | 0.0 | 0.0 | 0.00 | 0.27 | 0.27 | 95 | 1017.7 | |
| 20260903035024 | 70 | 0.0 | 0.0 | 0.00 | 0.27 | 0.27 | 95 | 1018.1 | |
| 20260903034826 | 71 | 0.0 | 0.0 | 0.00 | 0.27 | 0.27 | 96 | 1017.5 | |
| 20260903034550 | 70 | 0.0 | 0.0 | 0.00 | 0.27 | 0.27 | 95 | 1018.0 | |
| 20260903034331 | 71 | 0.0 | 0.0 | 0.00 | 0.27 | 0.27 | 96 | 1017.5 | |
| 20260903034024 | 70 | 0.0 | 0.0 | 0.00 | 0.27 | 0.27 | 95 | 1018.1 | |
| 20260903033828 | 71 | 0.0 | 0.0 | 0.00 | 0.27 | 0.27 | 96 | 1017.6 | |
| 20260903033523 | 70 | 0.0 | 0.0 | 0.00 | 0.27 | 0.27 | 95 | 1018.1 | |
| 20260903033411 | 71 | 0.0 | 0.0 | 0.00 | 0.27 | 0.27 | 96 | 1017.6 | |
| 20260903033055 | 70 | 0.0 | 0.0 | 0.00 | 0.27 | 0.27 | 95 | 1018.1 | |
| 20260903032825 | 71 | 0.0 | 0.0 | 0.00 | 0.27 | 0.27 | 96 | 1017.5 | |
| 20260903032527 | 70 | 0.0 | 0.0 | 0.00 | 0.27 | 0.27 | 95 | 1018.1 | |
| 20260903032326 | 71 | 0.0 | 0.0 | 0.00 | 0.27 | 0.27 | 96 | 1017.6 | |
| 20260903032024 | 70 | 0.0 | 0.0 | 0.00 | 0.27 | 0.27 | 95 | 1018.1 | |
| 20260903031823 | 71 | 0.0 | 0.0 | 0.00 | 0.27 | 0.27 | 96 | 1017.5 | |
| 20260903031600 | 70 | 0.0 | 0.0 | 0.00 | 0.27 | 0.27 | 95 | 1017.9 | |
| 20260903031319 | 71 | 0.0 | 0.0 | 0.00 | 0.27 | 0.27 | 95 | 1017.5 | |
| 20260903031025 | 70 | 0.0 | 0.0 | 0.00 | 0.27 | 0.27 | 95 | 1018.0 | |
| 20260903030836 | 71 | 0.0 | 0.0 | 0.00 | 0.27 | 0.27 | 95 | 1017.5 | |
| 20260903030525 | 71 | 0.0 | 0.0 | 0.00 | 0.27 | 0.27 | 95 | 1017.9 | |
| 20260903030311 | 71 | 0.0 | 0.0 | 0.00 | 0.27 | 0.27 | 95 | 1017.4 | |
| 20260903030101 | 71 | 0.0 | 0.0 | 0.00 | 0.27 | 0.27 | 95 | 1018.0 | |
| 20260903025827 | 71 | 0.0 | 0.0 | 0.00 | 0.27 | 0.27 | 95 | 1017.4 | |
| 20260903025523 | 71 | 0.0 | 0.0 | 0.00 | 0.27 | 0.27 | 95 | 1017.9 | |
| 20260903025322 | 71 | 0.0 | 0.0 | 0.00 | 0.27 | 0.27 | 95 | 1017.4 | |
| 20260903025026 | 71 | 0.0 | 0.0 | 0.00 | 0.27 | 0.27 | 95 | 1018.0 | |
| 20260903024817 | 71 | 0.0 | 0.0 | 0.00 | 0.27 | 0.27 | 96 | 1017.4 | |
| 20260903024545 | 71 | 0.0 | 0.0 | 0.00 | 0.27 | 0.27 | 95 | 1018.0 | |
| 20260903024315 | 71 | 0.0 | 0.0 | 0.00 | 0.27 | 0.27 | 96 | 1017.4 | |
| 20260903024027 | 71 | 0.0 | 0.0 | 0.00 | 0.27 | 0.27 | 96 | 1018.0 | |
| 20260903023811 | 72 | 0.0 | 0.0 | 0.00 | 0.27 | 0.27 | 96 | 1017.5 | |
| 20260903023530 | 71 | 0.0 | 0.0 | 0.00 | 0.27 | 0.27 | 96 | 1018.0 | |
| 20260903023326 | 72 | 0.0 | 0.0 | 0.00 | 0.27 | 0.27 | 96 | 1017.6 | |
| 20260903023056 | 71 | 0.0 | 0.0 | 0.00 | 0.27 | 0.27 | 96 | 1018.2 | |
| 20260903022817 | 72 | 0.0 | 0.0 | 0.00 | 0.27 | 0.27 | 96 | 1017.6 | |
| 20260903022526 | 71 | 0.0 | 0.0 | 0.00 | 0.27 | 0.27 | 96 | 1018.1 | |
| 20260903022351 | 72 | 0.0 | 0.0 | 0.00 | 0.27 | 0.27 | 96 | 1017.5 | |
| 20260903022025 | 71 | 0.0 | 0.0 | 0.00 | 0.27 | 0.27 | 96 | 1018.1 | |
| 20260903021845 | 72 | 0.0 | 0.0 | 0.00 | 0.27 | 0.27 | 96 | 1017.5 | |
| 20260903021547 | 71 | 0.0 | 0.0 | 0.00 | 0.27 | 0.27 | 96 | 1018.0 | |
| 20260903021338 | 72 | 0.0 | 0.0 | 0.00 | 0.27 | 0.27 | 96 | 1017.3 | |
| 20260903021024 | 71 | 0.0 | 0.0 | 0.00 | 0.27 | 0.27 | 96 | 1017.9 | |
| 20260903020830 | 72 | 0.0 | 0.0 | 0.00 | 0.27 | 0.27 | 96 | 1017.2 | |
| 20260903020524 | 71 | 0.0 | 0.0 | 0.00 | 0.27 | 0.27 | 96 | 1017.8 | |
| 20260903020345 | 72 | 0.0 | 0.0 | 0.00 | 0.27 | 0.27 | 96 | 1017.3 | |
| 20260903020043 | 71 | 0.0 | 0.0 | 0.00 | 0.27 | 0.27 | 96 | 1017.8 | |
| 20260903015821 | 72 | 0.0 | 0.0 | 0.00 | 0.27 | 0.27 | 96 | 1017.1 | |
| 20260903015525 | 71 | 0.0 | 0.0 | 0.00 | 0.27 | 0.27 | 96 | 1017.6 | |
| 20260903015315 | 72 | 0.0 | 0.0 | 0.00 | 0.27 | 0.27 | 96 | 1017.0 | |
| 20260903015028 | 71 | 0.0 | 0.0 | 0.00 | 0.27 | 0.27 | 96 | 1017.6 | |
| 20260903014826 | 72 | 0.0 | 0.0 | 0.00 | 0.27 | 0.27 | 96 | 1017.0 | |
| 20260903014551 | 71 | 0.0 | 0.0 | 0.00 | 0.27 | 0.27 | 95 | 1017.5 | |
| 20260903014320 | 72 | 0.0 | 0.0 | 0.00 | 0.27 | 0.27 | 96 | 1017.0 | |
| 20260903014025 | 71 | 0.0 | 0.0 | 0.00 | 0.27 | 0.27 | 95 | 1017.5 | |
| 20260903013831 | 72 | 0.0 | 0.0 | 0.00 | 0.27 | 0.27 | 96 | 1016.9 | |
| 20260903013529 | 71 | 0.0 | 0.0 | 0.00 | 0.27 | 0.27 | 95 | 1017.3 | |
| 20260903013323 | 72 | 0.0 | 0.0 | 0.00 | 0.27 | 0.27 | 96 | 1016.8 | |
| 20260903013055 | 71 | 0.0 | 0.0 | 0.00 | 0.27 | 0.27 | 95 | 1017.3 | |
| 20260903012833 | 72 | 0.0 | 0.0 | 0.00 | 0.27 | 0.27 | 96 | 1016.8 | |
| 20260903012525 | 71 | 0.0 | 0.0 | 0.00 | 0.27 | 0.27 | 95 | 1017.3 | |
| 20260903012345 | 72 | 0.0 | 0.0 | 0.00 | 0.27 | 0.27 | 96 | 1016.9 | |
| 20260903012026 | 71 | 0.0 | 0.0 | 0.00 | 0.27 | 0.27 | 95 | 1017.3 | |
| 20260903011816 | 72 | 0.0 | 0.0 | 0.00 | 0.27 | 0.27 | 96 | 1017.0 | |
| 20260903011546 | 71 | 0.0 | 0.0 | 0.00 | 0.27 | 0.27 | 95 | 1017.6 | |
| 20260903011325 | 72 | 0.0 | 0.0 | 0.00 | 0.27 | 0.27 | 96 | 1017.1 | |
| 20260903011026 | 71 | 0.0 | 0.0 | 0.00 | 0.27 | 0.27 | 95 | 1017.6 | |
| 20260903010814 | 72 | 0.0 | 0.0 | 0.00 | 0.27 | 0.27 | 95 | 1017.1 | |
| 20260903010524 | 71 | 0.0 | 0.0 | 0.00 | 0.27 | 0.27 | 95 | 1017.7 | |
| 20260903010345 | 72 | 0.0 | 0.0 | 0.00 | 0.27 | 0.27 | 95 | 1017.2 | |
| 20260903010056 | 71 | 0.0 | 0.0 | 0.00 | 0.27 | 0.27 | 95 | 1017.8 | |
| 20260903005823 | 72 | 0.0 | 0.0 | 0.00 | 0.27 | 0.27 | 95 | 1017.2 | |
| 20260903005526 | 71 | 0.0 | 0.0 | 0.00 | 0.27 | 0.27 | 95 | 1017.7 | |
| 20260903005318 | 72 | 0.0 | 0.0 | 0.00 | 0.27 | 0.27 | 96 | 1017.2 | |
| 20260903005024 | 72 | 0.0 | 0.0 | 0.00 | 0.27 | 0.27 | 95 | 1017.7 | |
| 20260903004830 | 72 | 0.0 | 0.0 | 0.00 | 0.27 | 0.27 | 95 | 1017.3 | |
| 20260903004549 | 72 | 0.0 | 0.0 | 0.00 | 0.27 | 0.27 | 95 | 1017.8 | |
| 20260903004323 | 72 | 0.0 | 0.0 | 0.00 | 0.27 | 0.27 | 95 | 1017.4 | |
| 20260903004027 | 72 | 0.0 | 0.0 | 0.00 | 0.27 | 0.27 | 95 | 1018.0 | |
| 20260903003814 | 72 | 0.0 | 0.0 | 0.00 | 0.27 | 0.27 | 95 | 1017.4 | |
| 20260903003525 | 72 | 0.0 | 0.0 | 0.00 | 0.27 | 0.27 | 95 | 1017.9 | |
| 20260903003329 | 72 | 0.0 | 0.0 | 0.00 | 0.27 | 0.27 | 95 | 1017.3 | |
| 20260903003052 | 72 | 0.0 | 0.0 | 0.00 | 0.27 | 0.27 | 95 | 1017.8 | |
| 20260903002838 | 72 | 0.0 | 0.0 | 0.00 | 0.27 | 0.27 | 95 | 1017.1 | |
| 20260903002524 | 72 | 0.0 | 0.0 | 0.00 | 0.27 | 0.27 | 95 | 1017.5 | |
| 20260903002349 | 72 | 0.0 | 0.0 | 0.00 | 0.27 | 0.27 | 95 | 1016.9 | |
| 20260903002025 | 72 | 0.0 | 0.0 | 0.00 | 0.27 | 0.27 | 94 | 1017.5 | |
| 20260903001823 | 72 | 0.0 | 0.0 | 0.00 | 0.27 | 0.27 | 95 | 1017.0 | |
| 20260903001546 | 72 | 0.0 | 0.0 | 0.00 | 0.27 | 0.27 | 94 | 1017.4 | |
| 20260903001315 | 73 | 0.0 | 0.0 | 0.00 | 0.27 | 0.27 | 95 | 1016.9 | |
| 20260903001025 | 72 | 0.0 | 0.0 | 0.00 | 0.27 | 0.27 | 95 | 1017.4 | |
| 20260903000828 | 73 | 0.0 | 0.0 | 0.00 | 0.27 | 0.27 | 95 | 1017.0 | |
| 20260903000525 | 72 | 0.0 | 0.0 | 0.00 | 0.27 | 0.27 | 95 | 1017.4 | |
| 20260903000340 | 73 | 0.0 | 0.0 | 0.00 | 0.27 | 0.27 | 95 | 1016.9 | |
| 20260903000044 | 72 | 0.0 | 0.0 | 0.00 | 0.27 | 0.27 | 95 | 1017.5 | |
| 20260902235829 | 73 | 0.0 | 0.0 | 0.00 | 0.27 | 0.27 | 95 | 1017.1 | |
| 20260902235526 | 72 | 0.0 | 0.0 | 0.00 | 0.27 | 0.27 | 95 | 1017.7 | |
| 20260902235320 | 73 | 0.0 | 0.0 | 0.00 | 0.27 | 0.27 | 95 | 1017.2 | |
| 20260902235024 | 72 | 0.0 | 0.0 | 0.00 | 0.27 | 0.27 | 94 | 1017.8 | |
| 20260902234811 | 73 | 0.0 | 0.0 | 0.00 | 0.27 | 0.27 | 95 | 1017.3 | |
| 20260902234601 | 72 | 0.0 | 0.0 | 0.00 | 0.27 | 0.27 | 94 | 1017.9 | |
| 20260902234326 | 73 | 0.0 | 0.0 | 0.00 | 0.27 | 0.27 | 95 | 1017.4 | |
| 20260902234029 | 73 | 0.0 | 0.0 | 0.00 | 0.27 | 0.27 | 94 | 1018.0 | |
| 20260902233842 | 73 | 0.0 | 0.0 | 0.00 | 0.27 | 0.27 | 95 | 1017.3 | |
| 20260902233527 | 73 | 0.0 | 0.0 | 0.00 | 0.27 | 0.27 | 94 | 1017.8 | |
| 20260902233316 | 73 | 0.0 | 0.0 | 0.00 | 0.27 | 0.27 | 95 | 1017.3 | |
| 20260902233045 | 73 | 0.0 | 0.0 | 0.00 | 0.27 | 0.27 | 94 | 1017.9 | |
| 20260902232812 | 73 | 0.0 | 0.0 | 0.00 | 0.27 | 0.27 | 95 | 1017.3 | |
| 20260902232529 | 73 | 0.0 | 0.0 | 0.00 | 0.27 | 0.27 | 94 | 1017.8 | |
| 20260902232327 | 73 | 0.0 | 0.0 | 0.00 | 0.27 | 0.27 | 95 | 1017.2 | |
| 20260902232025 | 73 | 0.0 | 0.0 | 0.00 | 0.27 | 0.27 | 94 | 1017.6 | |
| 20260902231842 | 73 | 0.0 | 0.0 | 0.00 | 0.27 | 0.27 | 95 | 1017.0 | |
| 20260902231546 | 73 | 0.0 | 0.0 | 0.00 | 0.27 | 0.27 | 94 | 1017.7 | |
| 20260902231331 | 73 | 0.0 | 0.0 | 0.00 | 0.27 | 0.27 | 94 | 1017.2 | |
| 20260902231028 | 73 | 0.0 | 0.0 | 0.00 | 0.27 | 0.27 | 94 | 1017.6 | |
| 20260902230825 | 73 | 0.0 | 0.0 | 0.00 | 0.27 | 0.27 | 94 | 1017.1 | |
| 20260902230531 | 73 | 0.0 | 0.0 | 0.00 | 0.27 | 0.27 | 94 | 1017.7 | |
| 20260902230316 | 74 | 0.0 | 0.0 | 0.00 | 0.27 | 0.27 | 94 | 1017.2 | |
| 20260902230048 | 73 | 0.0 | 0.0 | 0.00 | 0.27 | 0.27 | 94 | 1017.7 | |
| 20260902225826 | 74 | 190 | 0.0 | 0.0 | 0.00 | 0.27 | 0.27 | 94 | 1017.2 |
| 20260902225531 | 73 | 0.0 | 0.0 | 0.00 | 0.27 | 0.27 | 94 | 1017.7 | |
| 20260902225032 | 73 | 0 | 0.0 | 0.0 | 0.00 | 0.27 | 0.27 | 94 | 1017.7 |
| 20260902224820 | 74 | 190 | 0.0 | 0.0 | 0.00 | 0.27 | 0.27 | 94 | 1017.2 |
| 20260902224545 | 73 | 0 | 0.0 | 0.0 | 0.00 | 0.27 | 0.27 | 94 | 1018.0 |
| 20260902224329 | 74 | 190 | 0.0 | 0.0 | 0.00 | 0.27 | 0.27 | 94 | 1017.5 |
| 20260902224027 | 73 | 0 | 0.0 | 0.0 | 0.00 | 0.27 | 0.27 | 94 | 1018.0 |
| 20260902223821 | 74 | 190 | 0.0 | 0.0 | 0.00 | 0.27 | 0.27 | 94 | 1017.4 |
| 20260902223531 | 73 | 0 | 0.0 | 0.0 | 0.00 | 0.27 | 0.27 | 94 | 1017.9 |
| 20260902223333 | 74 | 190 | 0.0 | 0.0 | 0.00 | 0.27 | 0.27 | 94 | 1017.3 |
| 20260902223050 | 73 | 0 | 0.0 | 0.0 | 0.00 | 0.27 | 0.27 | 93 | 1017.7 |
| 20260902222827 | 74 | 190 | 327.0 | 0.0 | 0.00 | 0.27 | 0.27 | 94 | 1017.3 |
| 20260902222525 | 73 | 0 | 0.0 | 0.0 | 0.00 | 0.27 | 0.27 | 93 | 1017.7 |